Location: Northcutt
(34.7304°N, 84.4305°W)
Time: 16:57:07
(UTC+00:00)

SR - Pass Details

Date: 08 October 2022
Orbit: 577 x 874 km, 66.7° (Epoch: 05 December)

Event Time Altitude Azimuth Distance (km) Brightness Sun altitude
Rises 02:26:12 0° 253° (WSW) 3,439 ? -39.6°
Reaches altitude 10° 02:29:41 10° 274° (W) 2,521 ? -40.3°
Maximum altitude 02:33:16 16° 312° (NW) 2,104 ? -41.0°
Drops below altitude 10° 02:36:51 10° 350° (N) 2,517 ? -41.6°
Enters shadow 02:37:02 10° 351° (N) 2,556 ? -41.7°
Sets 02:40:20 0° 11° (N) 3,430 - -42.3°
